sat.trackr.live / text

‹ back to catalog

STARLINK-6318

NORAD 56530 · 2023-065AD

PAYLOAD ACTIVE UNKNOWN

§ Identity

Operator
Country
US
Launch date
2023-05-14
Launch site
AFETR
Launch vehicle
Mass (kg)
RCS (m²)

Purposes: comms

External: N2YO · Heavens-Above · Gunter

§ Orbital elements

Epoch: 2026-05-25T04:38:40.635168Z

Period
94.27 min
Inclination
43.0037°
Eccentricity
0.0001108
Mean motion
15.27578411 rev/d
Perigee alt
482.3 km
Apogee alt
483.8 km
Semi-major
6,861.2 km
B*
4.0781e-5
RAAN
114.9322°
Arg perigee
263.0517°
Mean anomaly
97.0209°
Rev number
16,859

§ Raw data

STARLINK-63181 56530U 23065AD  26145.19352587  .00000860  00000+0  40781-4 0  99902 56530  43.0037 114.9322 0001108 263.0517  97.0209 15.27578411168591

JSON: /api/v1/satellites/56530 · /tle

For live sub-satellite position, see the globe view (requires WebGL).

§ Visibility from observer

Set your observer location to see the next 7 days of passes ≥ 10°. The values pass through the URL so the page stays shareable.

No JS? Fill the form by hand. The geolocation button needs JavaScript.